When you browse on this site, cookies collect data to enhance your experience and personalize the content and advertising you see.
Visit our Privacy Policy to learn more. By continuing to use the site, you agree to this use of cookies and data.
  • In United Kingdom
  • List of Countries
  • For 7 days
  • Water Temperature
  • Satellite Maps
  • Weather Map
  • Weather Widgets
  • user-avatar
    Login

    Hourly Weather Hajdarabad

    Today, 23 April, Tuesday

    Time Temperature Precipitation Wind Pressure Humidity
    00:00 +34°C° 0 mm 6 mps 751 mmHg 41%
    01:00 +33°C° 0 mm 6 mps 751 mmHg 43%
    02:00 +33°C° 0 mm 6 mps 751 mmHg 45%
    03:00 +33°C° 0 mm 5 mps 751 mmHg 44%
    04:00 +32°C° 0 mm 5 mps 751 mmHg 43%
    05:00 +32°C° 0 mm 4 mps 751 mmHg 40%
    06:00 +33°C° 0 mm 4 mps 751 mmHg 38%
    07:00 +34°C° 0 mm 4 mps 751 mmHg 36%
    08:00 +35°C° 0 mm 5 mps 752 mmHg 34%
    09:00 +37°C° 0 mm 5 mps 752 mmHg 28%
    10:00 +41°C° 0 mm 5 mps 752 mmHg 22%
    11:00 +44°C° 0 mm 4 mps 752 mmHg 14%
    12:00 +45°C° 0 mm 5 mps 751 mmHg 13%
    13:00 +46°C° 0 mm 5 mps 751 mmHg 12%
    14:00 +47°C° 0 mm 5 mps 751 mmHg 10%
    15:00 +46°C° 0 mm 6 mps 750 mmHg 13%
    16:00 +45°C° 0 mm 8 mps 750 mmHg 15%
    17:00 +45°C° 0 mm 9 mps 750 mmHg 17%
    18:00 +42°C° 0 mm 9 mps 751 mmHg 24%
    19:00 +39°C° 0 mm 9 mps 751 mmHg 31%
    20:00 +35°C° 0 mm 9 mps 752 mmHg 38%
    21:00 +35°C° 0 mm 9 mps 752 mmHg 41%
    22:00 +34°C° 0 mm 8 mps 752 mmHg 44%
    23:00 +33°C° 0 mm 8 mps 753 mmHg 48%

    Tomorrow, 24 April, Wednesday

    Time Temperature Precipitation Wind Pressure Humidity
    00:00 +32°C° 0 mm 8 mps 752 mmHg 49%
    01:00 +32°C° 0 mm 8 mps 752 mmHg 51%
    02:00 +32°C° 0 mm 8 mps 752 mmHg 52%
    03:00 +31°C° 0 mm 8 mps 752 mmHg 53%
    04:00 +31°C° 0 mm 8 mps 752 mmHg 54%
    05:00 +31°C° 0 mm 8 mps 751 mmHg 56%
    06:00 +31°C° 0 mm 8 mps 752 mmHg 55%
    07:00 +32°C° 0 mm 8 mps 752 mmHg 54%
    08:00 +32°C° 0 mm 8 mps 752 mmHg 53%
    09:00 +34°C° 0 mm 8 mps 752 mmHg 47%
    10:00 +37°C° 0 mm 8 mps 752 mmHg 41%
    11:00 +40°C° 0 mm 8 mps 752 mmHg 35%
    12:00 +41°C° 0 mm 8 mps 752 mmHg 33%
    13:00 +43°C° 0 mm 8 mps 751 mmHg 30%
    14:00 +45°C° 0 mm 8 mps 751 mmHg 27%
    15:00 +44°C° 0 mm 8 mps 750 mmHg 28%
    16:00 +44°C° 0 mm 8 mps 750 mmHg 29%
    17:00 +43°C° 0 mm 8 mps 749 mmHg 30%
    18:00 +40°C° 0 mm 8 mps 750 mmHg 35%
    19:00 +39°C° 0 mm 9 mps 750 mmHg 39%
    20:00 +37°C° 0 mm 9 mps 751 mmHg 44%
    21:00 +35°C° 0 mm 8 mps 751 mmHg 45%
    22:00 +34°C° 0 mm 8 mps 752 mmHg 47%
    23:00 +34°C° 0 mm 7 mps 752 mmHg 49%

    Day after tomorrow, 25 April, Thursday

    Time Temperature Precipitation Wind Pressure Humidity
    00:00 +33°C° 0 mm 8 mps 752 mmHg 52%
    01:00 +32°C° 0 mm 8 mps 752 mmHg 55%
    02:00 +32°C° 0 mm 8 mps 751 mmHg 58%
    03:00 +32°C° 0 mm 8 mps 751 mmHg 60%
    04:00 +31°C° 0 mm 8 mps 751 mmHg 62%
    05:00 +31°C° 0 mm 8 mps 751 mmHg 63%
    06:00 +32°C° 0 mm 7 mps 751 mmHg 62%
    07:00 +32°C° 0 mm 7 mps 752 mmHg 61%
    08:00 +32°C° 0 mm 7 mps 752 mmHg 60%
    09:00 +35°C° 0 mm 7 mps 752 mmHg 51%
    10:00 +38°C° 0 mm 7 mps 753 mmHg 42%
    11:00 +41°C° 0 mm 6 mps 753 mmHg 32%
    12:00 +44°C° 0 mm 7 mps 752 mmHg 27%
    13:00 +45°C° 0 mm 7 mps 752 mmHg 22%
    14:00 +47°C° 0 mm 7 mps 751 mmHg 17%
    15:00 +47°C° 0 mm 7 mps 751 mmHg 16%
    16:00 +46°C° 0 mm 8 mps 750 mmHg 16%
    17:00 +46°C° 0 mm 8 mps 750 mmHg 16%
    18:00 +44°C° 0 mm 8 mps 750 mmHg 17%
    19:00 +43°C° 0 mm 7 mps 751 mmHg 18%
    20:00 +40°C° 0 mm 7 mps 751 mmHg 20%
    21:00 +39°C° 0 mm 7 mps 751 mmHg 22%
    22:00 +38°C° 0 mm 7 mps 752 mmHg 25%
    23:00 +36°C° 0 mm 7 mps 752 mmHg 27%

    26 April, Friday

    Time Temperature Precipitation Wind Pressure Humidity
    00:00 +35°C° 0 mm 6 mps 751 mmHg 28%
    01:00 +35°C° 0 mm 5 mps 751 mmHg 29%
    02:00 +34°C° 0 mm 4 mps 750 mmHg 31%
    03:00 +34°C° 0 mm 4 mps 750 mmHg 32%
    04:00 +34°C° 0 mm 4 mps 750 mmHg 33%
    05:00 +33°C° 0 mm 3 mps 750 mmHg 34%
    06:00 +34°C° 0 mm 3 mps 751 mmHg 32%
    07:00 +35°C° 0 mm 3 mps 751 mmHg 29%
    08:00 +36°C° 0 mm 2 mps 752 mmHg 27%
    09:00 +38°C° 0 mm 2 mps 752 mmHg 22%
    10:00 +40°C° 0 mm 3 mps 752 mmHg 17%
    11:00 +44°C° 0 mm 3 mps 753 mmHg 11%
    12:00 +45°C° 0 mm 3 mps 752 mmHg 10%
    13:00 +45°C° 0 mm 2 mps 751 mmHg 9%
    14:00 +46°C° 0 mm 2 mps 751 mmHg 8%
    15:00 +46°C° 0 mm 3 mps 750 mmHg 8%
    16:00 +47°C° 0 mm 4 mps 750 mmHg 8%
    17:00 +47°C° 0 mm 5 mps 749 mmHg 9%
    18:00 +46°C° 0 mm 6 mps 750 mmHg 12%
    19:00 +44°C° 0 mm 7 mps 750 mmHg 15%
    20:00 +41°C° 0 mm 8 mps 751 mmHg 18%
    21:00 +40°C° 0 mm 7 mps 751 mmHg 20%
    22:00 +39°C° 0 mm 6 mps 751 mmHg 21%
    23:00 +37°C° 0 mm 5 mps 751 mmHg 22%

    27 April, Saturday

    Time Temperature Precipitation Wind Pressure Humidity
    00:00 +37°C° 0 mm 5 mps 751 mmHg 23%
    01:00 +36°C° 0 mm 5 mps 751 mmHg 24%
    02:00 +36°C° 0 mm 5 mps 751 mmHg 25%
    03:00 +35°C° 0 mm 4 mps 751 mmHg 26%
    04:00 +35°C° 0 mm 4 mps 751 mmHg 27%
    05:00 +34°C° 0 mm 4 mps 751 mmHg 28%
    06:00 +34°C° 0 mm 4 mps 751 mmHg 28%
    07:00 +35°C° 0 mm 4 mps 752 mmHg 28%
    08:00 +35°C° 0 mm 4 mps 752 mmHg 27%
    09:00 +38°C° 0 mm 4 mps 752 mmHg 23%
    10:00 +41°C° 0 mm 4 mps 752 mmHg 19%
    11:00 +43°C° 0 mm 4 mps 752 mmHg 15%
    12:00 +44°C° 0 mm 4 mps 751 mmHg 13%
    13:00 +45°C° 0 mm 4 mps 751 mmHg 12%
    14:00 +47°C° 0 mm 4 mps 750 mmHg 10%
    15:00 +47°C° 0 mm 5 mps 749 mmHg 11%
    16:00 +47°C° 0 mm 6 mps 749 mmHg 11%
    17:00 +46°C° 0 mm 7 mps 749 mmHg 12%
    18:00 +45°C° 0 mm 7 mps 749 mmHg 13%
    19:00 +43°C° 0 mm 7 mps 750 mmHg 15%
    20:00 +40°C° 0 mm 7 mps 750 mmHg 16%
    21:00 +40°C° 0 mm 7 mps 750 mmHg 17%
    22:00 +39°C° 0 mm 7 mps 751 mmHg 17%
    23:00 +38°C° 0 mm 7 mps 751 mmHg 17%

    28 April, Sunday

    Time Temperature Precipitation Wind Pressure Humidity
    00:00 +36°C° 0 mm 6 mps 750 mmHg 17%
    01:00 +36°C° 0 mm 6 mps 750 mmHg 18%
    02:00 +35°C° 0 mm 6 mps 749 mmHg 19%
    03:00 +35°C° 0 mm 6 mps 750 mmHg 20%
    04:00 +34°C° 0 mm 5 mps 750 mmHg 21%
    05:00 +33°C° 0 mm 4 mps 750 mmHg 23%
    06:00 +34°C° 0 mm 5 mps 750 mmHg 23%
    07:00 +34°C° 0 mm 5 mps 751 mmHg 24%
    08:00 +35°C° 0 mm 5 mps 751 mmHg 25%
    09:00 +37°C° 0 mm 5 mps 751 mmHg 20%
    10:00 +41°C° 0 mm 4 mps 751 mmHg 14%
    11:00 +43°C° 0 mm 4 mps 751 mmHg 9%
    12:00 +44°C° 0 mm 3 mps 750 mmHg 8%
    13:00 +45°C° 0 mm 3 mps 750 mmHg 6%
    14:00 +46°C° 0 mm 3 mps 749 mmHg 5%
    15:00 +46°C° 0 mm 3 mps 749 mmHg 5%
    16:00 +47°C° 0 mm 4 mps 748 mmHg 5%
    17:00 +47°C° 0 mm 4 mps 748 mmHg 5%
    18:00 +46°C° 0 mm 5 mps 748 mmHg 7%
    19:00 +44°C° 0 mm 6 mps 749 mmHg 9%
    20:00 +41°C° 0 mm 6 mps 749 mmHg 11%
    21:00 +40°C° 0 mm 6 mps 749 mmHg 13%
    22:00 +39°C° 0 mm 6 mps 749 mmHg 15%
    23:00 +38°C° 0 mm 6 mps 750 mmHg 17%
    Show more